Regional Weather Roundup
Issued by NWS Sterling, VA

Home | Current Version | Previous Version | Text Only | Print | Product List | Glossary On
Versions: 1 2 3 4 5 6 7 8 9 10 11 12 13 14 15 16 17 18 19 20 21 22 23 24 25 26 27 28 29 30 31 32 33 34 35 36 37 38 39 40 41 42 43 44 45 46 47 48 49 50
000
ASUS41 KLWX 031110
RWRLWX

REGIONAL WEATHER ROUNDUP
NATIONAL WEATHER SERVICE BALTIMORE MD/WASHINGTON DC
700 AM EDT SUN MAY 03 2015

Note: "FAIR" indicates few or no clouds below 12,000 feet
with no significant weather and/or obstructions to visibility.
 TC=TEMPERATURE CELSIUS

 * =Non NWS site. Station does not report precipitation (e.g. rain,
    snow, etc.), thunder, or fog.

DCZ001-MDZ009-015-VAZ040>042-051-053>054-031200-
WASHINGTON METRO

CITY           SKY/WX    TMP DP  RH WIND       PRES   REMARKS
WASHINGTON NAT PTCLDY    58  45  62 CALM      30.09R
DULLES         PTCLDY    45  42  89 CALM      30.10R
ANDREWS AFB    CLEAR     49  44  83 CALM      30.08R
FT BELVOIR     CLEAR     45  44  96 CALM      30.09R
QUANTICO       CLEAR     53  46  77 NW7       30.10R
COLLEGE PARK*  CLEAR     46  46 100 CALM      30.07R
LEESBURG*      CLEAR     52  45  76 W3        30.11R
MANASSAS*      CLEAR     45  45 100 CALM      30.11R
GAITHERSBURG*  CLEAR     46  41  81 CALM      30.13R

$$

MDZ006>007-011-014-031200-
BALTIMORE METRO

CITY           SKY/WX    TMP DP  RH WIND       PRES   REMARKS
BWI AIRPORT    PTCLDY    49  44  83 CALM      30.07R
MD SCIENCE CTR   N/A     58  40  51 MISG      30.07R
MARTIN STATE   PTCLDY    52  50  93 CALM      30.08R
ANNAPOLIS      CLEAR     56  45  66 CALM      30.07R
FORT MEADE*    CLEAR     43  41  93 CALM      30.10R

$$

MDZ012-015-019>023-031200-
MARYLAND EASTERN SHORE

CITY           SKY/WX    TMP DP  RH WIND       PRES   REMARKS
OCEAN CITY     SUNNY     52  50  93 SW5       30.08R
SALISBURY      MOCLDY    45  43  93 CALM      30.07R
BAY BRIDGE AP*   N/A    N/A N/A N/A W3        30.07R
CAMBRIDGE*     CLEAR     52  50  93 CALM      30.06R
EASTON*        CLEAR     54  54 100 CALM      30.10R

$$

MDZ017>025-031200-
SOUTHERN MARYLAND

CITY           SKY/WX    TMP DP  RH WIND       PRES   REMARKS
PATUXENT RIVER MOCLDY    54  46  74 W5        30.08R
ST INIGOES     MOCLDY    57  49  74 W3        30.08R
LEONARDTOWN*   CLOUDY    50  45  81 CALM      30.10R

$$

MDZ003>005-031200-
NORTH CENTRAL MARYLAND

CITY           SKY/WX    TMP DP  RH WIND       PRES   REMARKS
FREDERICK*     CLEAR     43  39  87 CALM      30.12R
HAGERSTOWN APT PTCLDY    51  42  71 SE5       30.10R
WESTMINSTER*   CLEAR     52  39  62 CALM      30.08R

$$

MDZ501>502-031200-
WESTERN MARYLAND

CITY           SKY/WX    TMP DP  RH WIND       PRES   REMARKS
OAKLAND*       PTCLDY    50  37  62 SW6       30.15R
CUMBERLAND*    CLEAR     45  41  87 CALM      30.17R

$$

VAZ025>031-031200-
SHENANDOAH VALLEY

CITY           SKY/WX    TMP DP  RH WIND       PRES   REMARKS
WINCHESTER*    CLEAR     52  37  58 SW5       30.12R
FRONT ROYAL*   FAIR      50  43  76 S6        30.12R
LURAY*         PTSUNNY   48  48 100 CALM      30.14R
NEW MARKET*    PTSUNNY   44  42  92 CALM      30.14R
STAUNTON*      PTCLDY    44  41  87 E3        30.17R
WAYNESBORO*    FAIR      44  40  86 CALM      30.15R

$$

WVZ021-048>050-054>055-031200-
EASTERN WEST VIRGINIA PANHANDLE

CITY           SKY/WX    TMP DP  RH WIND       PRES   REMARKS
MARTINSBURG    PTCLDY    44  40  85 CALM      30.11R
PETERSBURG*    PTCLDY    40  36  87 CALM      30.16R

$$

VAZ036>039-050-031200-
CENTRAL FOOTHILLS

CITY           SKY/WX    TMP DP  RH WIND       PRES   REMARKS
CHARLOTTESVILL MOCLDY    51  44  77 VRB3      30.11R
CULPEPER*      NOT AVBL
ORANGE*        FAIR      50  45  81 SW6       30.12R
GORDONSVILLE*  FAIR      45  44  94 NE3       30.11R
WARRENTON*     FAIR      45  45 100 CALM      30.10R

$$

VAZ055>057-031200-
NORTH AND CENTRAL PIEDMONT

CITY           SKY/WX    TMP DP  RH WIND       PRES   REMARKS
FREDERICKSBRG* MOCLDY    49  49  99 CALM      30.10R
STAFFORD*      CLEAR     46  32  58 NW3       30.14R

$$

NCZ024-NYZ072-PAZ021-071-VAZ022-071-031200-
OTHER REGIONAL OBSERVATIONS

CITY           SKY/WX    TMP DP  RH WIND       PRES   REMARKS
NEW YORK CITY  SUNNY     52  36  54 VRB3      30.10R
PHILADELPHIA   PTSUNNY   51  43  74 E5        30.09R
PITTSBURGH     PTCLDY    49  41  74 S3        30.10R
ROANOKE        CLEAR     46  41  82 VRB3      30.19R
RICHMOND       PTCLDY    57  44  62 W5        30.11R
RALEIGH        PTCLDY    48  47  96 CALM      30.16R

$$

ANZ530>537-031200-
MARINE OBSERVATIONS

STATION/POSITION TIME  TEMP    WIND        PRES
                       AIR SEA DIR/SP/G
                 (UTC) (F)     (DEG/KT/KT) (MB)
THOMAS PT LIGHT  1100   59 58  300/  8/  9 1018.9R
BALT KEY BRIDGE  1000   57     220/  6/  6 1017.0R
COVE POINT       1000   60     300/ 11/ 13 1018.0R
LEWISETTA        1000   57 61              1017.8R
SOLOMONS ISLAND  1000      59                N/A
PINEY POINT      1000          320/  8/  8   N/A

$$




USA.gov is the U.S. government's official web portal to all federal, state and local government web resources and services.